Location: Unspecified
(0.0000°N, 0.0000°E)
Time: 00:41:20
(UTC+00:00)

Altair - All Passes

Search period start: 13 December 2018 00:00
Search period end: 23 December 2018 00:00
Orbit: 1502 x 1682 km, 47.2° (Epoch: 12 December)

Date Brightness Start Highest point End Pass type
(mag) Time Alt. Az. Time Alt. Az. Time Alt. Az.
13 Dec - 07:17:38 10° N 07:25:21 30° NE 07:33:13 10° ESE daylight
13 Dec - 09:20:49 10° NW 09:29:50 56° SW 09:39:14 10° SSE daylight
13 Dec - 18:06:59 10° SSE 18:10:21 12° SE 18:13:40 10° ESE daylight
13 Dec - 20:05:48 10° SSW 20:15:49 66° SE 20:25:29 10° NE visible
13 Dec - 22:12:37 10° WSW 22:20:28 27° NW 22:28:09 10° N visible
14 Dec - 06:52:52 10° N 07:00:10 26° NE 07:07:35 10° ESE daylight
14 Dec - 08:55:34 10° NW 09:04:41 63° SW 09:14:09 10° SSE daylight
14 Dec - 11:08:51 10° SW 11:10:07 10° SW 11:11:22 10° SW daylight
14 Dec - 19:40:42 10° SSW 19:50:37 60° SE 20:00:13 10° NE visible
14 Dec - 21:46:56 10° WSW 21:55:16 30° NW 22:03:23 10° N visible
15 Dec - 06:28:09 10° N 06:34:59 23° NE 06:41:53 10° E daylight
15 Dec - 08:30:21 10° NW 08:39:32 71° SW 08:49:03 10° SSE daylight
15 Dec - 10:41:23 10° WSW 10:44:47 12° SW 10:48:14 10° SSW daylight
15 Dec - 19:15:38 10° SSW 19:25:25 53° SE 19:34:55 10° NE visible
15 Dec - 21:21:21 10° WSW 21:30:03 34° NW 21:38:33 10° NNE visible
16 Dec - 06:03:31 10° N 06:09:46 20° NE 06:16:05 10° E daylight
16 Dec - 08:05:10 10° NW 08:14:23 79° SW 08:23:56 10° SE daylight
16 Dec - 10:14:57 10° WSW 10:19:30 14° SW 10:24:07 10° SSW daylight
16 Dec - 18:50:35 10° SSW 19:00:13 48° SE 19:09:34 10° ENE visible
16 Dec - 20:55:49 10° WSW 21:04:52 38° NW 21:13:40 10° NNE visible
17 Dec - 05:38:58 10° N 05:44:33 17° NE 05:50:10 10° E daylight
17 Dec - 07:40:01 10° NW 07:49:14 87° SW 07:58:47 10° SE daylight
17 Dec - 09:48:50 10° W 09:54:13 16° SW 09:59:44 10° S daylight
17 Dec - 18:25:35 10° SSW 18:35:01 43° SE 18:44:11 10° ENE visible
17 Dec - 20:30:20 10° WSW 20:39:40 43° NW 20:48:45 10° NNE visible
18 Dec - 05:14:35 10° NNE 05:19:19 15° NE 05:24:05 10° ENE visible
18 Dec - 07:14:54 10° NW 07:24:07 84° NE 07:33:36 10° SE daylight
18 Dec - 09:22:54 10° W 09:28:57 19° SW 09:35:10 10° S daylight
18 Dec - 18:00:37 10° SSW 18:09:47 38° SE 18:18:45 10° ENE daylight
18 Dec - 20:04:54 10° WSW 20:14:29 49° NW 20:23:48 10° NNE visible
19 Dec - 04:50:28 10° NNE 04:54:05 13° NE 04:57:42 10° ENE visible
19 Dec - 06:49:49 10° NW 06:58:58 76° NE 07:08:23 10° SE daylight
19 Dec - 08:57:06 10° W 09:03:43 22° SW 09:10:31 10° S daylight
19 Dec - 17:35:41 10° SSW 17:44:34 34° SE 17:53:15 10° ENE daylight
19 Dec - 19:39:30 10° SW 19:49:17 54° NW 19:58:48 10° NNE visible
20 Dec - 04:27:03 10° NNE 04:28:49 11° NE 04:30:33 10° NE visible
20 Dec - 06:24:45 10° NNW 06:33:50 68° NE 06:43:09 10° SE daylight
20 Dec - 08:31:25 10° W 08:38:29 24° SW 08:45:47 10° S daylight
20 Dec - 17:10:47 10° S 17:19:19 30° SE 17:27:41 10° ENE daylight
20 Dec - 19:14:09 10° SW 19:24:06 61° NW 19:33:47 10° NNE visible
21 Dec - 05:59:43 10° NNW 06:08:42 60° NE 06:17:52 10° SE daylight
21 Dec - 08:05:48 10° WNW 08:13:17 28° SW 08:20:59 10° S daylight
21 Dec - 16:45:57 10° S 16:54:05 27° SE 17:02:04 10° ENE daylight
21 Dec - 18:48:50 10° SW 18:58:54 68° NW 19:08:43 10° NNE visible
21 Dec - 21:00:52 10° WNW 21:04:07 12° NW 21:07:21 10° NNW visible
22 Dec - 05:34:43 10° NNW 05:43:34 53° NE 05:52:34 10° SE visible
22 Dec - 07:40:16 10° WNW 07:48:05 31° SW 07:56:08 10° S daylight
22 Dec - 16:21:10 10° S 16:28:49 24° SE 16:36:22 10° E daylight
22 Dec - 18:23:34 10° SW 18:33:43 76° NW 18:43:38 10° NE visible
22 Dec - 20:34:09 10° WNW 20:38:49 14° NW 20:43:26 10° NNW visible
